Home   Weather   Paradise   Past weeks
Flag for USA

Past Weather in Paradise, Nevada, USA — Yesterday and Last 2 Weeks

Now
56 °F

Overcast.


Feels Like: 56 °F
Forecast: 66 / 53 °F
Wind: 3 mph from South

Location: McCarran International Airport

Current Time: Mar 29, 2020 at 6:36:18 am

Latest Report: Mar 29, 2020 at 5:56 am


Visibility: 10 mi

Pressure: 29.96 "Hg (27.74 "Hg at 643m altitude)

Humidity: 30%

Dew Point: 25 °F

Location of ParadiseLocation

Past Weather in Paradise — Graph

°F

Paradise Temperature Yesterday

Maximum temperature yesterday: 66 °F (at 3:56 pm)
Minimum temperature yesterday: 46 °F (at 6:56 am)
Average temperature yesterday: 57 °F

High & Low Weather Summary for the Past Weeks

 TemperatureHumidityPressure
High69 °F (Mar 15, 1:56 pm)93% (Mar 20, 5:56 am)30.24 "Hg (Mar 20, 5:56 am)
Low45 °F (Mar 19, 6:56 am)12% (Mar 27, 2:57 pm)29.64 "Hg (Mar 18, 6:56 pm)
Average56 °F44%29.94 "Hg
* Reported Mar 14 4:56 am — Mar 29 4:56 am, Paradise. Weather by CustomWeather, © 2020

Note: Actual official high and low records may vary slightly from our data, if they occured in-between our weather recording intervals... More about our weather records

Paradise Weather History for the Previous 24 Hours

Scroll right to see more
 ConditionsComfort  
Time TempWeatherWind HumidityBarometerVisibility
4:56 am
Sun, Mar 29
57 °FMostly cloudy.3 mph27%29.95 "Hg10 mi
3:56 am57 °FOvercast.No wind25%29.95 "Hg10 mi
2:56 am57 °FOvercast.No wind25%29.95 "Hg10 mi
1:56 am58 °FMostly cloudy.6 mph23%29.96 "Hg10 mi
12:56 am57 °FMostly cloudy.No wind27%29.98 "Hg10 mi
11:56 pm
Sat, Mar 28
57 °FMostly cloudy.3 mph27%29.99 "Hg10 mi
10:56 pm58 °FMostly cloudy.5 mph24%29.99 "Hg10 mi
9:56 pm60 °FMostly cloudy.5 mph22%30.00 "Hg10 mi
8:56 pm62 °FMostly cloudy.5 mph21%29.99 "Hg10 mi
7:56 pm63 °FMostly cloudy.8 mph20%29.97 "Hg10 mi
6:56 pm63 °FCloudy.8 mph20%29.99 "Hg10 mi
5:56 pm64 °FBroken clouds.13 mph18%29.98 "Hg10 mi
4:56 pm65 °FBroken clouds.6 mph19%29.99 "Hg10 mi
3:56 pm66 °FPartly sunny.13 mph19%30.00 "Hg10 mi
2:56 pm64 °FOvercast.6 mph20%30.03 "Hg10 mi
1:56 pm64 °FOvercast.12 mph21%30.06 "Hg10 mi
12:56 pm63 °FPartly sunny.6 mph20%30.10 "Hg10 mi
11:56 am60 °FPartly sunny.3 mph22%30.13 "Hg10 mi
10:56 am58 °FScattered clouds.7 mph25%30.14 "Hg10 mi
9:56 am56 °FPassing clouds.No wind28%30.14 "Hg10 mi
8:56 am53 °FPassing clouds.3 mph31%30.14 "Hg10 mi
7:56 am50 °FPassing clouds.No wind35%30.12 "Hg10 mi
6:56 am46 °FPassing clouds.No wind40%30.11 "Hg10 mi
Weather by CustomWeather, © 2020

See weather overview

Advertising